Volver al catálogo

CZ-4C DEB

ActivoSSO
NORAD 43261·DEBRIS·🇨🇳 China

Lanzado Mar 31, 2018 desde Taiyuan Satellite Launch Center

Loading…

Próximos Pases (próximas 24 horas)

TLE

ActualizadoSource: Space-Track

Época: Sep 14, 2026, 13:30 UTC

1 43261U 18031C   26257.56305535  .00004866  00000-0  37251-3 0  9998
2 43261  97.7681 341.9029 0009072  14.1790 345.9688 15.02325697457823

Sigue CZ-4C DEB en tiempo real con AllMySat

Download on the App Store